Location: Monteux
(44.0348°N, 4.9972°E)
Time: 18:15:06
(UTC+00:00)

Cosmos 44 - Pass Details

Date: 30 November 2020
Orbit: 574 x 788 km, 65.1° (Epoch: 22 January)

Event Time Altitude Azimuth Distance (km) Brightness Sun altitude
Rises 17:04:06 0° 324° (NW) 3,210 6.9 -10.7°
Reaches altitude 10° 17:06:29 10° 322° (NW) 2,305 6.2 -11.1°
Maximum altitude 17:11:47 72° 239° (WSW) 822 3.8 -12.0°
Drops below altitude 10° 17:17:11 10° 156° (SSE) 2,341 6.0 -12.9°
Sets 17:19:36 0° 154° (SSE) 3,264 6.7 -13.4°
